Regional Weather Roundup
Issued by NWS

Home | Current Version | Previous Version | Graphics & Text | Print | Product List | Glossary On
Versions: 1 2 3 4 5 6 7 8 9 10 11 12 13 14 15 16 17 18 19 20 21 22 23 24
000
ASUS45 KCYS 220710
RWRWY

WYOMING REGIONAL WEATHER ROUNDUP
NATIONAL WEATHER SERVICE CHEYENNE WY
100 AM MDT WED MAR 22 2017

NOTE:  "FAIR" INDICATES FEW OR NO CLOUDS BELOW 12,000 FEET
WITH NO SIGNIFICANT WEATHER AND/OR OBSTRUCTIONS TO VISIBILITY.

WYZ001-220800-
YELLOWSTONE NATIONAL PARK

CITY           SKY/WX    TMP DP  RH WIND       PRES   REMARKS
LK YELLOWSTONE   N/A     34  34 100 CALM      29.99R
W YELLOWSTONE  NOT AVBL

$$
WYZ002>013-054>058-071-098>099-220800-
NORTHERN WYOMING

CITY           SKY/WX    TMP DP  RH WIND       PRES   REMARKS
JACKSON        CLOUDY    39  36  87 SE5       29.95S
CODY           FAIR      33  33 100 S6        29.89F WCI  28
GREYBULL       FAIR      39  37  92 SE5       29.87F
WORLAND        FAIR      35  35 100 CALM      29.88F
SHERIDAN       MOCLDY    36  34  92 CALM      29.88F
BUFFALO        FAIR      48  37  65 SE14G31   29.87F
GILLETTE       MOCLDY    34  32  92 S22G31    29.94F WCI  22
HULETT         FOG       32  30  93 NE3       29.99F VSB 1/2
NEWCASTLE      FAIR      37  30  75 SE24G32   30.06S WCI  26

$$
WYZ014>020-022>026-101>103-220800-
CENTRAL WYOMING

CITY           SKY/WX    TMP DP  RH WIND       PRES   REMARKS
BIG PINEY      FAIR      32  30  92 N8        29.99F WCI  25
PINEDALE       CLOUDY    37  32  81 E9        30.00S WCI  31
DUBOIS         PTSUNNY   36  32  87 CALM      29.96F
LANDER         FAIR      40  34  79 VRB5      29.90F
RIVERTON       FAIR      37  34  89 NW6       29.91F WCI  32
CASPER         FAIR      37  36  96 VRB3      29.95F
DOUGLAS        FAIR      42  30  62 S24G33    30.00F

$$
WYZ021-027>030-104>119-220800-
SOUTHERN WYOMING

CITY           SKY/WX    TMP DP  RH WIND       PRES   REMARKS
EVANSTON       LGT RAIN  46  32  58 W31G40    30.00R
KEMMERER         N/A     41  32  70 W13       30.03R
FORT BRIDGER   FAIR      47  30  50 SW8G16    30.04R
ROCK SPRINGS   FAIR      47  29  49 VRB7      29.99F
DIXON            N/A     48  28  45 CALM      30.06S
RAWLINS          N/A     41  25  53 CALM      30.02F
SARATOGA       FAIR      46  27  46 S9G20     30.05S
LARAMIE        FAIR      37  32  82 S20       30.07S WCI  27
CHEYENNE       FAIR      36  28  73 SE10G21   30.12F WCI  28
TORRINGTON     FAIR      35  31  85 E17       30.11F WCI  25
PINE BLUFFS    FAIR      37  27  65 S20G37    30.13R WCI  27

$$




USA.gov is the U.S. government's official web portal to all federal, state and local government web resources and services.